Home > Weather > Kalamaria > Past weeks

Flag for Greece Past Weather in Kalamaria, Greece — Yesterday and Last 2 Weeks

Now
75 °F

Passing clouds.


Feels Like: 77 °F
Forecast: 66 / 91 °F
Wind: 3 mph from North

Location: Thessaloniki Airport

Current Time: Jun 28, 2016 at 1:16:24 AM

Latest Report: Jun 28, 2016 at 12:50 AM


Visibility: N/A

Pressure: 29.83 "Hg

Humidity: 61%

Dew Point: 61 °F

Location of KalamariaLocation

Past Weather in Kalamaria — Graph

°F

Kalamaria Temperature Yesterday

Maximum temperature yesterday: 95 °F (at 4:50 PM)
Minimum temperature yesterday: 70 °F (at 4:50 AM)
Average temperature yesterday: 82 °F

High & Low Weather Summary for the Past Weeks

 TemperatureHumidityPressure
High100 °F (Jun 23, 1:50 PM)100% (Jun 13, 10:50 AM)30.07 "Hg (Jun 13, 10:50 AM)
Low61 °F (Jun 15, 4:50 AM)16% (Jun 16, 6:50 PM)29.53 "Hg (Jun 13, 5:20 PM)
Average81 °F50%29.87 "Hg
* Reported Jun 12 11:20 PM — Jun 27 11:50 PM, Kalamaria, Weather by CustomWeather, © 2016

Note: Actual official high and low records may vary slightly from our data, if they occured in-between our weather recording intervals... More about our weather records

Advertising

Kalamaria Weather History for the Previous 24 Hours

Scroll right to see more
 ConditionsComfort  
Time TempWeatherWind HumidityBarometerVisibility
11:50 PM
Mon, Jun 27
77 °FPassing clouds.8 mph61%29.83 "HgN/A
11:20 PM81 °FThunderstorms. Passing clouds.23 mph48%29.83 "HgN/A
10:50 PM84 °FPassing clouds.15 mph55%29.80 "HgN/A
10:20 PM82 °FPassing clouds.5 mph48%29.80 "HgN/A
9:50 PM84 °FScattered clouds.7 mph45%29.77 "HgN/A
9:20 PM84 °FPassing clouds.6 mph40%29.77 "HgN/A
8:50 PM84 °FPassing clouds.9 mph40%29.74 "HgN/A
8:20 PM86 °FPassing clouds.7 mph40%29.77 "HgN/A
7:50 PM86 °FPassing clouds.13 mph43%29.74 "HgN/A
7:20 PM88 °FPassing clouds.14 mph38%29.74 "HgN/A
6:50 PM91 °FPassing clouds.13 mph36%29.74 "HgN/A
6:20 PM95 °FPassing clouds.9 mph25%29.74 "HgN/A
5:50 PM95 °FPassing clouds.8 mph25%29.74 "HgN/A
5:20 PM95 °FPassing clouds.8 mph26%29.77 "HgN/A
4:50 PM95 °FScattered clouds.9 mph28%29.77 "HgN/A
4:20 PM93 °FScattered clouds.12 mph32%29.77 "HgN/A
3:50 PM93 °FScattered clouds.12 mph30%29.77 "HgN/A
3:20 PM93 °FPassing clouds.10 mph34%29.77 "HgN/A
2:50 PM93 °FPassing clouds.12 mph30%29.80 "HgN/A
2:20 PM93 °FPassing clouds.10 mph28%29.80 "HgN/A
1:50 PM90 °FPassing clouds.10 mph41%29.80 "HgN/A
1:20 PM90 °FPassing clouds.10 mph43%29.83 "HgN/A
12:50 PM88 °FPassing clouds.9 mph46%29.83 "HgN/A
12:20 PM88 °FPassing clouds.12 mph49%29.83 "HgN/A
11:50 AM86 °FPassing clouds.8 mph49%29.86 "HgN/A
11:20 AM84 °FPassing clouds.9 mph55%29.86 "HgN/A
10:50 AM82 °FPassing clouds.6 mph58%29.86 "HgN/A
10:20 AM82 °FPassing clouds.7 mph55%29.86 "HgN/A
9:50 AM81 °FPassing clouds.7 mph58%29.86 "HgN/A
9:20 AM81 °FPassing clouds.6 mph62%29.86 "HgN/A
8:50 AM79 °FPassing clouds.3 mph61%29.86 "HgN/A
8:20 AM81 °FPassing clouds.3 mph54%29.86 "HgN/A
7:50 AM75 °FPassing clouds.3 mph61%29.86 "HgN/A
7:20 AM73 °FPassing clouds.2 mph61%29.86 "HgN/A
6:50 AM72 °FPassing clouds.3 mph65%29.86 "HgN/A
6:20 AM70 °FPassing clouds.3 mph69%29.86 "HgN/A
5:50 AM70 °FPassing clouds.3 mph69%29.86 "HgN/A
5:20 AM70 °FPassing clouds.3 mph73%29.86 "HgN/A
4:50 AM70 °FPassing clouds.6 mph73%29.86 "HgN/A
4:20 AM72 °FPassing clouds.3 mph69%29.86 "HgN/A
3:50 AM72 °FPassing clouds.3 mph69%29.86 "HgN/A
3:20 AM72 °FPassing clouds.No wind69%29.86 "HgN/A
2:50 AM73 °FPassing clouds.3 mph65%29.89 "HgN/A
2:20 AM72 °FPassing clouds.6 mph69%29.86 "HgN/A
1:50 AM73 °FPassing clouds.5 mph65%29.86 "HgN/A
1:20 AM73 °FPassing clouds.3 mph69%29.86 "HgN/A
Weather by CustomWeather, © 2016

See weather overviewHow to use our weather pages